Regional Weather Roundup
Issued by NWS

Home | Current Version | Previous Version | Text Only | Print | Product List | Glossary Off
Versions: 1 2 3 4 5 6 7 8 9 10 11 12 13 14 15 16 17 18 19 20 21 22 23 24 25 26 27 28 29 30 31 32 33 34 35 36 37 38 39 40 41 42 43 44 45 46 47 48 49 50

000
ASUS43 KIND 301009
RWRIN

WEATHER ROUNDUP FOR INDIANA
NATIONAL WEATHER SERVICE INDIANAPOLIS IN
500 AM EST FRI JAN 30 2015

NOTE: "FAIR" INDICATES FEW OR NO CLOUDS BELOW 12,000 FEET WITH NO
SIGNIFICANT WEATHER AND/OR OBSTRUCTIONS TO VISIBILITY.

* - STATION DOES NOT REPORT WEATHER SUCH AS PRECIPITATION OR FOG.

+ - STATION NOT QUALITY CONTROLLED BY THE NATIONAL WEATHER SERVICE.
    USE DATA WITH CAUTION...ESPECIALLY DEWPOINT AND RELATIVE
    HUMIDITY OBSERVATIONS.

INZ001>003-010>013-019-020-301100-
NORTHWEST INDIANA

CITY           SKY/WX    TMP DP  RH WIND       PRES   REMARKS
KNOX *+        MOCLDY    27   7  43 N15G25    30.36R WCI  15
LA PORTE +     CLOUDY    28  18  67 N12G21    30.36R WCI  18
MICHIGAN CITY+ CLOUDY    28  10  47 N12G25    30.37R WCI  18
MONTICELLO +   CLOUDY    28  21  77 N16       30.35R WCI  15
RENSSELAER +   PTCLDY    28  21  74 N10G18    30.38R WCI  19
VALPARAISO     MOCLDY    26  11  52 N9G21     30.37R WCI  17

$$

LMZ046-743>745-301100-
SOUTHERN LAKE MICHIGAN

STATION/POSITION TIME  TEMP WIND        PRES
                       AIR  DIR/SP/G
                 (UTC) (F)  (DEG/KT/KT) (MB)
MICHIGAN CITY    1000   27  330/ 24/ 28   N/A

$$

INZ004-005-014>016-021>024-301100-
NORTH CENTRAL INDIANA

CITY           SKY/WX    TMP DP  RH WIND       PRES   REMARKS
GOSHEN         CLOUDY    22  15  75 N13       30.32R WCI  10
LOGANSPORT +   CLOUDY    28  18  64 N17       30.34R WCI  16
PERU/GRISSOM   CLOUDY    27  18  67 N17       30.32R WCI  14
ROCHESTER +    CLOUDY    28  19  69 N12G18    30.34R WCI  18
SOUTH BEND     CLOUDY    25  16  68 N17       30.35R WCI  12
WARSAW +       FLURRIES  25  19  80 N13G23    30.32R WCI  13

$$

INZ006>009-017-018-025>027-301100-
NORTHEAST INDIANA

CITY           SKY/WX    TMP DP  RH WIND       PRES   REMARKS
ANGOLA *+      CLEAR     19  10  68 NW13      30.26R WCI   7
AUBURN +       CLEAR     21  12  68 NW12G18   30.30R WCI   9
FORT WAYNE     MOCLDY    24  14  65 N12       30.30R WCI  13
HUNTINGTON +   CLOUDY    24  11  57 N7        30.31R WCI  16

$$

INZ028-029-035-036-043>045-051>053-301100-
WEST CENTRAL INDIANA

CITY           SKY/WX    TMP DP  RH WIND       PRES   REMARKS
CRAWFORDSVL +  FLURRIES  28  21  74 NW13      30.35R WCI  18
GREENCASTLE +  CLOUDY    32  21  64 NW12G22   30.33R WCI  23
LAFAYETTE      CLOUDY    28  19  69 N14G26    30.37R WCI  17
TERRE HAUTE    CLOUDY    33  25  72 NW16G28   30.37R WCI  23

$$

INZ030>032-037>040-046>048-054>057-064-065-301100-
CENTRAL INDIANA

CITY           SKY/WX    TMP DP  RH WIND       PRES   REMARKS
CP ATTERBURY + CLOUDY    34  25  69 NW15      30.31R WCI  24
GREENWOOD *+   CLOUDY    32  23  69 N15G23    30.31  WCI  22
INDIANAPOLIS   FLURRIES  28  24  85 NW15      30.32R WCI  16
-EAGLE CREEK   FLURRIES  30  24  78 N15       30.32R WCI  19
KOKOMO *+      CLOUDY    27  18  69 N21G26    30.32R WCI  13
MARION +       CLOUDY    27  17  68 N15       30.32R WCI  15
MT COMFORT *+  MOCLDY    30  16  55 N18       30.31R WCI  18
SHELBYVILLE    CLOUDY    33  24  69 N22       30.29R WCI  21
ZIONSVILLE +   LGT SNOW  29  23  79 N17G26    30.32R WCI  17

$$

INZ033-034-041-042-049-050-058-059-301100-
EAST CENTRAL INDIANA

CITY           SKY/WX    TMP DP  RH WIND       PRES   REMARKS
MUNCIE         CLOUDY    28  19  69 N21G28    30.29R WCI  15

$$

INZ060-061-067>069-081>083-085>088-301100-
SOUTHWEST INDIANA

CITY           SKY/WX    TMP DP  RH WIND       PRES   REMARKS
EVANSVILLE     CLOUDY    36  24  62 NW10G17   30.42R
HUNTINGBURG *+ CLOUDY    34  25  69 NW13G18   30.38R WCI  25
WASHINGTON +   CLOUDY    33  24  69 NW13      30.38R WCI  24

$$

INZ062-063-066-070>080-084-089>092-301100-
SOUTH CENTRAL AND SOUTHEAST INDIANA

CITY           SKY/WX    TMP DP  RH WIND       PRES   REMARKS
BLOOMINGTON    CLOUDY    33  26  75 NW8       30.33R WCI  26
NORTH VERNON + CLOUDY    34  25  69 NW9       30.30R WCI  26
SEYMOUR +      CLOUDY    36  23  60 NW12      30.32R

$$




USA.gov is the U.S. government's official web portal to all federal, state and local government web resources and services.